Francistown, Botswana

12:47 AM CAT on March 23, 2017 (GMT +0200)
Francistown

Weather History for FBFT - August, 2014

Change the Weather History Date:

Monday, August 18, 2014

  Actual Average Record
Temperature  
Mean Temperature 62 °F -  
Max Temperature 80 °F 81 °F 95 °F (2001)
Min Temperature 44 °F 52 °F 40 °F (2015)
Degree Days  
Heating Degree Days 3    
Growing Degree Days 12 (Base 50)    
Moisture  
Dew Point 44 °F    
Average Humidity 54    
Maximum Humidity 100    
Minimum Humidity 20    
Precipitation  
Precipitation 0.00 in - - ()
Sea Level Pressure  
Sea Level Pressure 30.20 in    
Wind  
Wind Speed 5 mph ()    
Max Wind Speed 10 mph    
Max Gust Speed -    
Visibility 6.1 miles    
Events      
Averages and records for this station are not official NWS values.
T = Trace of Precipitation, MM = Missing Value Source: Averaged Metar Reports

Daily Weather History Graph

Daily Weather History Graph

Search for Another Location

Airport or City:

Trip Planner

Search our weather history database for the weather conditions in past years. The results will help you decide how hot, cold, wet, or windy it might be!

Date:

Astronomy

Aug. 18, 2014 Rise Set
Actual Time 6:31 AM CAT 5:56 PM CAT
Civil Twilight 6:08 AM CAT 6:19 PM CAT
Nautical Twilight 5:42 AM CAT 6:45 PM CAT
Astronomical Twilight 5:16 AM CAT 7:11 PM CAT
Moon 12:46 AM CAT (8/18) 12:13 PM CAT (8/18)
Length of Visible Light 12h 11m
Length of Day
11h 25m
Last Quarter, 41% of the Moon is Illuminated
Aug 18
Last Quarter
Aug 25
New
Sep 2
First Quarter
Sep 9
Full
Sep 16
Last Quarter

Hourly Weather History & Observations

Time (CAT) Temp. Windchill Dew Point Humidity Pressure Visibility Wind Dir Wind Speed Gust Speed Precip Events Conditions
12:00 AM 55.4 °F - 42.8 °F 63% 30.24 in - East 5.8 mph - N/A   Clear
1:00 AM 55.4 °F - 44.6 °F 67% 30.24 in - East 5.8 mph - N/A   Clear
2:00 AM 54 °F - 44 °F 61%  in 6 mi East 10.4 mph - -  
3:00 AM 50.0 °F - 42.8 °F 76% 30.24 in - SE 3.5 mph - N/A   Clear
4:00 AM 48.2 °F - 42.8 °F 82% 30.24 in - SE 3.5 mph - N/A   Clear
5:00 AM 47 °F - 44 °F 84%  in 6 mi SE 5.8 mph - -  
5:00 AM 48.2 °F - 44.6 °F 87% 30.24 in - SE 4.6 mph - N/A   Clear
6:00 AM 46.4 °F 44.3 °F 44.6 °F 93% 30.21 in - SE 4.6 mph - N/A   Clear
7:00 AM 46.4 °F - 46.4 °F 100% 30.24 in - Variable 1.2 mph - N/A   Clear
8:00 AM 55 °F - 49 °F 75%  in 6 mi East 9.2 mph - -   Partly Cloudy
8:00 AM 55.4 °F - 50.0 °F 82% 30.24 in - East 9.2 mph - N/A   Clear
9:00 AM 62.6 °F - 50.0 °F 63% 30.27 in - East 6.9 mph - N/A   Clear
10:00 AM 68.0 °F - 50.0 °F 52% 30.27 in - ENE 3.5 mph - N/A   Clear
11:00 AM 71 °F - 48 °F 33%  in 6 mi ENE 8.1 mph - -   Partly Cloudy
11:00 AM 71.6 °F - 48.2 °F 43% 30.24 in - ENE 8.1 mph - N/A   Clear
12:00 PM 75.2 °F - 48.2 °F 38% 30.21 in - SSE 10.4 mph - N/A   Clear
1:00 PM 77.0 °F - 46.4 °F 34% 30.18 in 6.2 mi SSW 3.5 mph - N/A   Partly Cloudy
2:00 PM 78 °F - 44 °F 20%  in 6 mi ENE 3.5 mph - -   Partly Cloudy
2:00 PM 78.8 °F - 44.6 °F 30% 30.15 in 6.2 mi ENE 3.5 mph - N/A   Partly Cloudy
3:00 PM 78.8 °F - 44.6 °F 30% 30.15 in 6.2 mi SSE 6.9 mph - N/A   Partly Cloudy
4:00 PM 78.8 °F - 42.8 °F 28% 30.12 in 6.2 mi ESE 8.1 mph - N/A   Partly Cloudy
5:00 PM - - - %  in - Calm Calm - -  
5:00 PM 78.8 °F - 42.8 °F 28% 30.12 in - ESE 10.4 mph - N/A   Clear
6:00 PM 71.6 °F - 41.0 °F 33% 30.12 in - SE 6.9 mph - N/A   Clear
7:00 PM 66.2 °F - 41.0 °F 40% 30.15 in - SE 4.6 mph - N/A   Clear
8:00 PM 62 °F - 41 °F 34%  in 6 mi 4.6 mph - -   Partly Cloudy
8:00 PM 62.6 °F - 41.0 °F 45% 30.18 in - ESE 4.6 mph - N/A   Clear
9:00 PM 53.6 °F - 37.4 °F 54% 30.18 in - Variable 2.3 mph - N/A   Clear
10:00 PM 55.4 °F - 41.0 °F 58% 30.21 in - ESE 3.5 mph - N/A   Clear
11:00 PM 57 °F - 38 °F 37%  in 6 mi ESE 2.3 mph - -  
11:00 PM 57.2 °F - 39.2 °F 51% 30.21 in - Variable 2.3 mph - N/A   Clear